Miscellaneous Local Product
Issued by NWS North Platte, NE

Home | Current Version | Previous Version | Text Only | Print | Product List | Glossary On
Versions: 1 2 3 4 5 6 7 8 9 10 11 12 13 14 15 16 17 18 19 20 21 22 23 24 25 26 27 28 29 30 31 32 33 34 35 36 37 38 39 40 41 42 43 44 45 46 47 48 49 50
000
AXUS43 KLBF 270010
MISLBF


WESTERN AND NORTH CENTRAL NEBRASKA HOURLY WEATHER ROUNDUP
NATIONAL WEATHER SERVICE NORTH PLATTE NE
700 PM CDT FRI MAY 26 2017

NOTE: "FAIR" INDICATES FEW OR NO CLOUDS BELOW 12,000 FEET WITH NO
SIGNIFICANT WEATHER AND/OR OBSTRUCTIONS TO VISIBILITY.

NOTE: STATIONS NOT REPORTING VARIABLES SUCH AS SKY/WEATHER OR
PRESSURE ARE PROVIDED BY RAWS AND APRS NETWORKS AND ARE NOT UNDER
NATIONAL WEATHER SERVICE QUALITY CONTROL.

...OBSERVATIONS IN AND NEAR THE EASTERN PANHANDLE OF NEBRASKA...

CITY           SKY/WX    TMP DP  RH WIND       PRES   REMARKS
PINE RIDGE     CLOUDY    60  47  61 CALM      29.91S
GORDON         LGT RAIN  61  45  57 SW8       29.94R
CHADRON        CLOUDY    57  44  62 N9        29.90S
ALLIANCE       RAIN      56  51  84 E12       29.87F
SIDNEY         LGT RAIN  62  48  60 E16G25    29.81F
$$

...OBSERVATIONS IN NORTHERN NEBRASKA AND FAR SOUTHERN SOUTH DAKOTA...

CITY           SKY/WX    TMP DP  RH WIND       PRES   REMARKS
WINNER         FAIR      71  41  33 NW9       29.86R
VALENTINE      CLOUDY    73  38  27 N7        29.88R
THEDFORD       MOSUNNY   72  43  35 SE6       29.89S
AINSWORTH      CLOUDY    68  42  38 CALM      29.90R
O`NEILL        MOSUNNY   71  40  32 N5        29.88S
ORD            SUNNY     73  42  32 N5        29.87R
BROKEN BOW     SUNNY     73  45  36 E9        29.87S
VALENTINE NWR    N/A     70  41  34 CALM        N/A
HALSEY           N/A     73  40  31 E6          N/A
BUTTE            N/A     71  43  36 NW8         N/A
CHAMBERS         N/A     81  48  31 N3          N/A
EWING            N/A     73  46  38 N5          N/A
$$

...OBSERVATIONS IN SOUTHWEST NEBRASKA AND FAR NORTHEAST COLORADO...

CITY           SKY/WX    TMP DP  RH WIND       PRES   REMARKS
WRAY           CLOUDY    64  50  59 NE8       29.89S
IMPERIAL       CLOUDY    67  49  52 S6        29.89R
OGALLALA       CLOUDY    71  46  40 SE9       29.86F
NORTH PLATTE   SUNNY     71  48  43 E9        29.86S
MCCOOK         MOSUNNY   74  48  39 SE10      29.84F
LEXINGTON      SUNNY     74  51  44 E5        29.86S
STAPLETON        N/A     72  44  36 CALM        N/A
GOTHENBURG       N/A     74  43  32 E6          N/A
CALLAWAY         N/A     73  48  41 E8          N/A
$$

...OBSERVATIONS IN CENTRAL LINCOLN COUNTY AREA...

CITY           SKY/WX    TMP DP  RH WIND       PRES   REMARKS
N.P. AIRPORT   SUNNY     71  48  43 E9        29.86S
N.P. DOWNTOWN    N/A     72  47  40 E3          N/A
N.P. SOUTHEAST   N/A     72  47  41 CALM        N/A
N.P. HILLCREST   N/A     71  47  41 E9          N/A
$$

...SOME OBSERVATIONS FROM AROUND THE REGION...

CITY           SKY/WX    TMP DP  RH WIND       PRES   REMARKS
DENVER         CLOUDY    72  50  45 W13G20    29.80S
LIMON          CLOUDY    68  46  45 SE18G30   29.84F
ASPEN          CLOUDY    66  15  14 SW7G25    29.94R
LARAMIE        LGT RAIN  49  42  77 MISG      29.93R
CASPER         CLOUDY    45  42  89 E10       29.96R
CHEYENNE       LGT RAIN  58  47  66 SE10      29.87S
SCOTTSBLUFF    CLOUDY    59  48  67 NE14      29.86F
GRAND ISLAND   SUNNY     76  47  35 VRB6      29.85S
OMAHA          MOSUNNY   81  49  32 N5        29.80S
SIOUX FALLS    MOSUNNY   72  43  35 NW15G23   29.82S
PIERRE         PTSUNNY   70  36  28 NW12      29.83R
RAPID CITY     CLOUDY    60  38  43 S8        29.93R
BISMARCK       PTSUNNY   69  38  32 NW10      29.80S
KANSAS CITY    MOSUNNY   82  63  52 E7        29.78R
HILL CITY      SUNNY     78  52  40 SE10      29.84F
WICHITA        MOSUNNY   84  61  45 NE10      29.77F
DODGE CITY     SUNNY     79  56  45 E9        29.84F
OKLAHOMA CITY  MOSUNNY   86  66  51 E6        29.75S
DALLAS         CLOUDY    87  74  64 S21       29.74S HX  95
AMARILLO       SUNNY     85  38  18 S13       29.85F
$$




USA.gov is the U.S. government's official web portal to all federal, state and local government web resources and services.